EW5029 Weather Reports


Display with metric or nautical units.
time (UTC)temp
F
wind
direction
speed
MPH
gust
MPH
rain 1hr
in
rain 24hr
in
rain mn
in
humidity
%
barometer
mb
20260902225034 64 180 1.0 4.0 0.00 0.02 0.00 82 1017.5
20260902224531 64 138 1.0 6.0 0.00 0.02 0.00 82 1017.5
20260902224028 64 107 3.0 6.0 0.00 0.02 0.00 83 1017.5
20260902223528 64 142 1.0 5.0 0.00 0.02 0.00 84 1017.6
20260902223028 64 111 2.0 4.0 0.00 0.02 0.00 84 1017.5
20260902222527 64 130 1.0 4.0 0.00 0.02 0.00 84 1017.6
20260902222026 63 119 1.0 4.0 0.00 0.02 0.00 85 1017.7
20260902221525 63 109 1.0 4.0 0.00 0.02 0.00 85 1017.8
20260902221024 63 121 1.0 6.0 0.00 0.02 0.00 85 1017.9
20260902220524 64 213 1.0 5.0 0.00 0.02 0.00 85 1018.0
20260902220035 64 178 1.0 4.0 0.00 0.02 0.00 85 1018.0
20260902215520 64 152 0.0 8.0 0.00 0.02 0.02 85 1018.3
20260902215021 64 167 1.0 8.0 0.00 0.02 0.02 85 1018.3
20260902214536 65 300 2.0 7.0 0.00 0.02 0.02 85 1018.3
20260902214021 65 186 1.0 7.0 0.00 0.02 0.02 85 1018.3
20260902213520 65 214 2.0 8.0 0.00 0.02 0.02 84 1018.1
20260902213020 65 182 2.0 5.0 0.00 0.02 0.02 84 1018.1
20260902212523 65 146 1.0 5.0 0.00 0.02 0.02 83 1018.1
20260902212020 65 123 1.0 4.0 0.00 0.02 0.02 83 1018.1
20260902211519 65 91 0.0 4.0 0.00 0.02 0.02 83 1018.1
20260902211021 65 162 1.0 6.0 0.00 0.02 0.02 83 1018.1
20260902210520 65 89 1.0 6.0 0.00 0.02 0.02 83 1018.2
20260902210017 65 181 2.0 6.0 0.00 0.02 0.02 83 1018.3
20260902205519 65 158 2.0 5.0 0.00 0.02 0.02 83 1018.3
20260902205017 65 144 0.0 6.0 0.00 0.02 0.02 83 1018.3
20260902204516 65 146 1.0 6.0 0.00 0.02 0.02 83 1018.3
20260902204140 65 184 0.0 4.0 0.00 0.02 0.02 83 1018.4
20260902203515 65 185 1.0 8.0 0.00 0.02 0.02 83 1018.4
20260902203015 65 173 1.0 6.0 0.00 0.02 0.02 84 1018.4
20260902202515 65 146 1.0 5.0 0.00 0.02 0.02 85 1018.5
20260902202015 65 232 1.0 8.0 0.00 0.02 0.02 85 1018.5
20260902201529 65 125 1.0 8.0 0.00 0.02 0.02 85 1018.5
20260902201014 65 149 1.0 4.0 0.00 0.02 0.02 86 1018.5
20260902200514 64 107 0.0 4.0 0.00 0.02 0.02 85 1018.5
20260902200012 64 132 0.0 3.0 0.00 0.02 0.02 86 1018.6
20260902195511 64 150 1.0 3.0 0.00 0.02 0.02 87 1018.6
20260902195011 64 123 0.0 3.0 0.00 0.02 0.02 87 1018.7
20260902194510 64 220 0.0 3.0 0.00 0.02 0.02 88 1018.8
20260902194011 64 120 0.0 3.0 0.00 0.02 0.02 88 1018.8
20260902193511 64 198 0.0 2.0 0.00 0.02 0.02 88 1018.8
20260902193011 64 141 0.0 4.0 0.00 0.02 0.02 88 1018.8
20260902192510 64 192 0.0 4.0 0.00 0.02 0.02 88 1018.9
20260902192010 64 117 0.0 4.0 0.00 0.02 0.02 89 1018.9
20260902191518 64 137 0.0 4.0 0.00 0.02 0.02 89 1018.8
20260902191110 64 188 0.0 4.0 0.00 0.02 0.02 89 1018.9
20260902190511 64 111 0.0 4.0 0.01 0.02 0.02 89 1018.8
20260902190011 64 165 0.0 3.0 0.02 0.02 0.02 90 1018.8
20260902185509 64 175 0.0 3.0 0.02 0.02 0.02 90 1018.9
20260902185010 63 100 0.0 3.0 0.02 0.02 0.02 90 1018.9
20260902184514 63 176 0.0 3.0 0.02 0.02 0.02 89 1019.0
20260902184012 63 119 0.0 2.0 0.02 0.02 0.02 89 1019.0
20260902183509 63 90 0.0 2.0 0.02 0.02 0.02 88 1019.0
20260902183014 64 130 0.0 1.0 0.02 0.02 0.02 88 1019.0
20260902182508 64 130 0.0 1.0 0.02 0.02 0.02 87 1019.0
20260902182008 64 130 0.0 1.0 0.02 0.02 0.02 86 1019.0
20260902181508 64 130 0.0 3.0 0.02 0.02 0.02 85 1019.0
20260902181008 65 200 0.0 4.0 0.02 0.02 0.02 84 1019.1
20260902180509 66 312 0.0 9.0 0.02 0.02 0.02 82 1019.3
20260902180009 67 279 2.0 9.0 0.00 0.00 0.00 79 1019.3
20260902175507 67 309 2.0 8.0 0.00 0.00 0.00 77 1019.2
20260902175007 67 223 0.0 2.0 0.00 0.00 0.00 76 1019.0
20260902174507 67 189 0.0 3.0 0.00 0.00 0.00 76 1019.0
20260902174007 67 5 0.0 3.0 0.00 0.00 0.00 75 1019.1
20260902173507 67 213 0.0 6.0 0.00 0.00 0.00 75 1019.0
20260902173017 67 140 1.0 6.0 0.00 0.00 0.00 74 1019.0
20260902172509 67 175 0.0 2.0 0.00 0.00 0.00 74 1019.1
20260902172009 67 199 0.0 6.0 0.00 0.00 0.00 74 1019.1
20260902171506 67 62 1.0 6.0 0.00 0.00 0.00 74 1019.1
20260902171007 67 182 0.0 5.0 0.00 0.00 0.00 74 1019.2
20260902170505 68 257 1.0 5.0 0.00 0.00 0.00 74 1019.2
20260902170005 68 168 0.0 9.0 0.00 0.00 0.00 74 1019.2
20260902165507 68 137 1.0 9.0 0.00 0.00 0.00 74 1019.2
20260902165005 68 247 0.0 3.0 0.00 0.00 0.00 74 1019.2
20260902164503 68 223 1.0 3.0 0.00 0.00 0.00 74 1019.2
20260902164004 68 142 0.0 8.0 0.00 0.00 0.00 74 1019.2
20260902163504 68 261 0.0 8.0 0.00 0.00 0.00 74 1019.1
20260902163003 67 288 0.0 4.0 0.00 0.00 0.00 74 1019.1
20260902162504 67 176 0.0 4.0 0.00 0.00 0.00 74 1019.2
20260902162003 67 30 0.0 5.0 0.00 0.00 0.00 75 1019.2
20260902161505 67 158 1.0 5.0 0.00 0.00 0.00 74 1019.2
20260902161005 68 205 0.0 3.0 0.00 0.00 0.00 75 1019.3
20260902160503 68 104 0.0 4.0 0.00 0.00 0.00 75 1019.4
20260902160008 68 111 0.0 3.0 0.00 0.00 0.00 75 1019.4
20260902155502 68 132 1.0 5.0 0.00 0.00 0.00 74 1019.5
20260902155005 68 294 1.0 5.0 0.00 0.00 0.00 76 1019.5
20260902154502 68 85 1.0 4.0 0.00 0.00 0.00 76 1019.6
20260902154001 68 307 0.0 4.0 0.00 0.00 0.00 75 1019.6
20260902153502 68 207 2.0 5.0 0.00 0.00 0.00 75 1019.6
20260902153002 68 159 1.0 6.0 0.00 0.00 0.00 75 1019.6
20260902152502 68 322 1.0 9.0 0.00 0.00 0.00 75 1019.6
20260902152001 69 116 1.0 9.0 0.00 0.00 0.00 75 1019.7
20260902151600 69 119 2.0 9.0 0.00 0.00 0.00 74 1019.8
20260902151104 69 188 1.0 9.0 0.00 0.00 0.00 74 1019.7
20260902150600 69 350 2.0 7.0 0.00 0.00 0.00 75 1019.8
20260902150100 69 298 2.0 6.0 0.00 0.00 0.00 75 1019.8
20260902145600 69 223 2.0 12.0 0.00 0.00 0.00 75 1019.8
20260902145059 69 321 3.0 12.0 0.00 0.00 0.00 75 1019.8
20260902144601 69 207 2.0 8.0 0.00 0.00 0.00 75 1019.9
20260902144059 68 178 1.0 15.0 0.00 0.00 0.00 75 1019.9
20260902143602 68 315 2.0 15.0 0.00 0.00 0.00 74 1019.9
20260902143100 69 329 2.0 6.0 0.00 0.00 0.00 73 1019.9
20260902142559 69 355 2.0 12.0 0.00 0.00 0.00 73 1019.9
20260902142059 69 195 4.0 12.0 0.00 0.00 0.00 73 1020.0
20260902141609 69 128 1.0 8.0 0.00 0.00 0.00 73 1019.9
20260902141101 69 15 2.0 10.0 0.00 0.00 0.00 73 1019.9
20260902140559 69 317 3.0 10.0 0.00 0.00 0.00 73 1019.9
20260902140058 69 196 3.0 14.0 0.00 0.00 0.00 73 1019.9
20260902135558 69 173 4.0 14.0 0.00 0.00 0.00 72 1019.9
20260902135057 70 323 4.0 12.0 0.00 0.00 0.00 71 1019.9
20260902134558 70 15 3.0 10.0 0.00 0.00 0.00 71 1020.0
20260902134057 70 207 2.0 8.0 0.00 0.00 0.00 70 1019.9
20260902133557 70 170 2.0 8.0 0.00 0.00 0.00 68 1019.9
20260902133100 71 331 2.0 10.0 0.00 0.00 0.00 67 1019.9
20260902132601 72 309 2.0 13.0 0.00 0.00 0.00 67 1019.9
20260902132057 73 17 7.0 13.0 0.00 0.00 0.00 64 1019.8
20260902131608 73 34 3.0 9.0 0.00 0.00 0.00 66 1019.8
20260902131058 73 244 1.0 8.0 0.00 0.00 0.00 65 1019.9
20260902130555 72 26 1.0 6.0 0.00 0.00 0.00 67 1019.7
20260902130053 72 289 1.0 8.0 0.00 0.00 0.00 67 1019.8
20260902125552 72 60 0.0 12.0 0.00 0.00 0.00 67 1019.8
20260902125051 72 237 2.0 12.0 0.00 0.00 0.00 66 1019.9
20260902124605 72 190 2.0 9.0 0.00 0.00 0.00 67 1019.8
20260902124052 71 184 0.0 9.0 0.00 0.00 0.00 70 1019.8
20260902123552 71 332 2.0 12.0 0.00 0.00 0.00 69 1019.8
20260902123127 71 335 2.0 19.0 0.00 0.00 0.00 70 1019.8
20260902122551 71 315 4.0 19.0 0.00 0.00 0.00 70 1019.8
20260902122049 71 324 4.0 13.0 0.00 0.00 0.00 69 1019.9
20260902121553 71 355 3.0 16.0 0.00 0.00 0.00 69 1019.8
20260902121049 71 134 5.0 16.0 0.00 0.00 0.00 69 1019.9
20260902120549 71 305 3.0 14.0 0.00 0.00 0.00 69 1019.8
20260902120050 71 308 2.0 16.0 0.00 0.00 0.00 69 1019.9
20260902115550 71 5 3.0 13.0 0.00 0.00 0.00 68 1019.9
20260902115047 71 77 5.0 16.0 0.00 0.00 0.00 64 1019.9
20260902114549 71 327 3.0 11.0 0.00 0.00 0.00 67 1019.9
20260902114047 71 15 3.0 11.0 0.00 0.00 0.00 66 1020.0
20260902113546 71 323 2.0 9.0 0.00 0.00 0.00 67 1019.9
20260902113045 71 262 2.0 12.0 0.00 0.00 0.00 66 1020.0
20260902112545 71 323 2.0 13.0 0.00 0.00 0.00 65 1020.0
20260902112045 71 207 3.0 14.0 0.00 0.00 0.00 66 1020.0
20260902111549 71 335 4.0 10.0 0.00 0.00 0.00 65 1020.1
20260902111043 71 324 3.0 9.0 0.00 0.00 0.00 69 1020.0
20260902110542 71 316 4.0 14.0 0.00 0.00 0.00 68 1020.1
20260902110052 70 349 1.0 14.0 0.00 0.00 0.00 68 1020.0
20260902105539 70 28 3.0 10.0 0.00 0.00 0.00 70 1020.0
20260902105039 70 115 3.0 14.0 0.00 0.00 0.00 68 1020.1
20260902104539 70 310 6.0 14.0 0.00 0.00 0.00 69 1020.2
20260902104039 70 328 4.0 13.0 0.00 0.00 0.00 70 1020.1
20260902103536 69 307 2.0 6.0 0.00 0.00 0.00 71 1020.0
20260902103035 69 311 2.0 9.0 0.00 0.00 0.00 74 1020.1
20260902102539 69 307 2.0 9.0 0.00 0.00 0.00 74 1020.0
20260902102035 69 258 1.0 11.0 0.00 0.00 0.00 75 1020.0
20260902101540 69 221 3.0 11.0 0.00 0.00 0.00 74 1020.0
20260902101033 68 50 3.0 9.0 0.00 0.00 0.00 75 1020.0
20260902100533 68 324 2.0 11.0 0.00 0.00 0.00 75 1020.1
20260902100035 68 329 4.0 11.0 0.00 0.00 0.00 74 1020.0
20260902095532 68 126 2.0 12.0 0.00 0.00 0.00 74 1020.0
20260902095032 69 32 3.0 12.0 0.00 0.00 0.00 75 1019.9
20260902094532 69 223 3.0 10.0 0.00 0.00 0.00 74 1019.9
20260902094032 69 21 2.0 10.0 0.00 0.00 0.00 73 1019.9
20260902093533 69 119 1.0 12.0 0.00 0.00 0.00 74 1019.9
20260902093031 69 302 1.0 12.0 0.00 0.00 0.00 75 1019.8
20260902092530 68 329 2.0 12.0 0.00 0.00 0.00 75 1019.9
20260902092029 68 163 2.0 10.0 0.00 0.00 0.00 73 1019.9
20260902091529 68 312 2.0 10.0 0.00 0.00 0.00 74 1019.8
20260902091032 68 162 1.0 8.0 0.00 0.00 0.00 76 1019.9
20260902090528 68 204 1.0 6.0 0.00 0.00 0.00 79 1019.8
20260902090035 68 227 1.0 4.0 0.00 0.00 0.00 81 1019.8
20260902085525 68 314 1.0 4.0 0.00 0.00 0.00 82 1019.7
20260902085024 68 192 0.0 3.0 0.00 0.00 0.00 82 1019.7
20260902084524 67 224 0.0 3.0 0.00 0.00 0.00 83 1019.8
20260902084024 68 233 0.0 4.0 0.00 0.00 0.00 83 1019.7
20260902083524 67 152 0.0 4.0 0.00 0.00 0.00 84 1019.7
20260902083021 67 160 0.0 3.0 0.00 0.00 0.00 84 1019.6
20260902082523 67 235 0.0 3.0 0.00 0.00 0.00 85 1019.5
20260902082020 67 138 0.0 4.0 0.00 0.00 0.00 86 1019.4
20260902081519 66 257 1.0 4.0 0.00 0.00 0.00 85 1019.4
20260902081018 66 189 0.0 4.0 0.00 0.00 0.00 86 1019.5
20260902080517 66 128 1.0 3.0 0.00 0.00 0.00 87 1019.4
20260902080015 66 347 1.0 4.0 0.00 0.00 0.00 88 1019.6
20260902075513 66 248 0.0 3.0 0.00 0.00 0.00 89 1019.4
20260902075012 65 196 0.0 3.0 0.00 0.00 0.00 90 1019.4
20260902074515 64 222 1.0 3.0 0.00 0.00 0.00 91 1019.4
20260902074009 64 175 0.0 3.0 0.00 0.00 0.00 91 1019.5
20260902073508 63 97 0.0 4.0 0.00 0.00 0.00 91 1019.3
20260902073007 63 111 1.0 4.0 0.00 0.00 0.00 92 1019.2
20260902072505 63 116 0.0 6.0 0.00 0.00 0.00 92 1019.2
20260902072004 62 214 2.0 6.0 0.00 0.00 0.00 92 1019.2
20260902071504 62 75 1.0 4.0 0.00 0.00 0.00 93 1019.2
20260902071001 62 226 0.0 3.0 0.00 0.00 0.00 93 1019.2
20260902070502 62 274 1.0 4.0 0.00 0.00 0.00 93 1019.2
20260902065602 61 147 1.0 6.0 0.00 0.00 0.00 93 1019.1
20260902065100 61 193 1.0 3.0 0.00 0.00 0.00 93 1019.0
20260902064557 61 167 1.0 4.0 0.00 0.00 0.00 93 1019.1
20260902064057 61 157 1.0 4.0 0.00 0.00 0.00 94 1019.0
20260902063555 61 113 0.0 4.0 0.00 0.00 0.00 93 1019.1
20260902063104 60 115 1.0 4.0 0.00 0.00 0.00 94 1019.1
20260902062552 60 94 1.0 4.0 0.00 0.00 0.00 94 1019.1
20260902062052 60 242 0.0 4.0 0.00 0.00 0.00 94 1019.1
20260902061614 60 114 0.0 4.0 0.00 0.00 0.00 94 1019.0
20260902061054 59 124 1.0 4.0 0.00 0.00 0.00 94 1019.0
20260902060552 59 121 1.0 4.0 0.00 0.00 0.00 93 1019.1
20260902055551 59 144 0.0 4.0 0.00 0.00 0.00 93 1019.0
20260902055051 59 115 1.0 3.0 0.00 0.00 0.00 93 1019.0
20260902054549 59 116 0.0 3.0 0.00 0.00 0.00 93 1019.0
20260902054048 59 122 0.0 3.0 0.00 0.00 0.00 93 1019.0
20260902053547 59 122 0.0 3.0 0.00 0.00 0.00 92 1019.0
20260902053047 59 107 0.0 2.0 0.00 0.00 0.00 92 1019.0
20260902052548 59 107 1.0 3.0 0.00 0.00 0.00 92 1018.9
20260902052045 59 107 0.0 3.0 0.00 0.00 0.00 92 1019.0
20260902051546 59 130 0.0 3.0 0.00 0.00 0.00 92 1019.0
20260902051044 59 121 1.0 3.0 0.00 0.00 0.00 92 1019.0
20260902050545 59 120 0.0 4.0 0.00 0.00 0.00 92 1018.9
20260902050043 59 120 0.0 4.0 0.00 0.00 0.00 92 1018.9
20260902045543 60 118 1.0 4.0 0.00 0.00 0.00 92 1018.9
20260902045043 60 153 0.0 2.0 0.00 0.00 0.00 92 1018.9
20260902044543 60 142 1.0 3.0 0.00 0.00 0.00 92 1018.8
20260902044044 60 111 0.0 3.0 0.00 0.00 0.00 92 1018.9
20260902043543 60 126 0.0 5.0 0.00 0.00 0.00 92 1018.8
20260902043044 59 84 1.0 5.0 0.00 0.00 0.00 92 1018.8
20260902042544 60 130 1.0 4.0 0.00 0.00 0.00 91 1018.9
20260902042042 60 101 1.0 4.0 0.00 0.00 0.00 91 1018.8
20260902041553 60 122 0.0 2.0 0.00 0.00 0.00 91 1018.9
20260902041042 60 119 0.0 3.0 0.00 0.00 0.00 91 1018.9
20260902040542 60 119 1.0 3.0 0.00 0.00 0.00 91 1018.8
20260902040041 60 114 0.0 3.0 0.00 0.00 0.00 91 1018.8
20260902035541 60 148 0.0 3.0 0.00 0.00 0.00 91 1018.9
20260902035040 60 123 1.0 2.0 0.00 0.00 0.00 91 1018.9
20260902034540 60 123 0.0 2.0 0.00 0.00 0.00 91 1018.9
20260902034040 60 123 0.0 2.0 0.00 0.00 0.00 91 1019.0
20260902033540 60 123 0.0 2.0 0.00 0.00 0.00 91 1019.1
20260902033039 60 123 0.0 2.0 0.00 0.00 0.00 91 1019.0
20260902032538 60 124 0.0 3.0 0.00 0.00 0.00 91 1019.0
20260902032036 60 116 0.0 3.0 0.00 0.00 0.00 91 1019.1
20260902031536 60 115 1.0 3.0 0.00 0.00 0.00 90 1019.1
20260902031034 60 119 1.0 4.0 0.00 0.00 0.00 90 1019.1
20260902030534 60 115 1.0 3.0 0.00 0.00 0.00 90 1019.1
20260902030030 60 121 0.0 3.0 0.00 0.00 0.00 90 1019.2
20260902025531 59 131 0.0 3.0 0.00 0.00 0.00 90 1019.2
20260902025029 59 138 0.0 2.0 0.00 0.00 0.00 90 1019.2
20260902024528 59 134 0.0 3.0 0.00 0.00 0.00 90 1019.3
20260902024028 59 119 1.0 3.0 0.00 0.00 0.00 90 1019.3
20260902023528 59 130 0.0 1.0 0.00 0.00 0.00 90 1019.3
20260902023028 59 127 0.0 2.0 0.00 0.00 0.00 90 1019.4
20260902022530 59 127 0.0 2.0 0.00 0.00 0.00 90 1019.4
20260902022027 60 127 0.0 2.0 0.00 0.00 0.00 90 1019.4
20260902021529 60 127 0.0 3.0 0.00 0.00 0.00 89 1019.5
20260902021026 59 127 0.0 3.0 0.00 0.00 0.00 89 1019.5
20260902020526 60 149 0.0 3.0 0.00 0.00 0.00 89 1019.5
20260902020043 59 113 1.0 4.0 0.00 0.00 0.00 89 1019.4
20260902015525 59 107 1.0 4.0 0.00 0.13 0.00 89 1019.3
20260902015024 59 116 1.0 4.0 0.00 0.13 0.00 89 1019.4
20260902014524 59 115 0.0 4.0 0.00 0.13 0.00 89 1019.5
20260902014023 59 121 1.0 3.0 0.00 0.13 0.00 89 1019.5
20260902013525 59 121 0.0 2.0 0.00 0.13 0.00 89 1019.5
20260902013024 59 121 0.0 3.0 0.00 0.13 0.00 89 1019.5
20260902012520 59 121 0.0 3.0 0.00 0.13 0.00 89 1019.6
20260902012024 59 121 0.0 2.0 0.00 0.13 0.00 89 1019.7
20260902011521 59 121 0.0 3.0 0.00 0.13 0.00 89 1019.6
20260902011021 59 121 0.0 3.0 0.00 0.13 0.00 89 1019.7
20260902010521 59 121 0.0 3.0 0.00 0.13 0.00 88 1019.7
20260902010031 59 121 1.0 3.0 0.00 0.13 0.00 88 1019.7
20260902005523 59 120 1.0 3.0 0.00 0.13 0.00 88 1019.6
20260902005019 59 118 0.0 3.0 0.00 0.13 0.00 88 1019.6
20260902004519 59 117 0.0 3.0 0.00 0.13 0.00 88 1019.7
20260902004022 59 118 0.0 3.0 0.00 0.13 0.00 88 1019.7
20260902003518 59 118 0.0 3.0 0.00 0.13 0.00 88 1019.7
20260902003017 59 118 1.0 3.0 0.00 0.13 0.00 88 1019.7
20260902002518 59 132 0.0 3.0 0.00 0.13 0.00 88 1019.8
20260902002017 58 132 0.0 2.0 0.00 0.13 0.00 88 1019.8
20260902001519 58 132 0.0 2.0 0.00 0.13 0.00 88 1019.7
20260902001018 58 132 0.0 2.0 0.00 0.13 0.00 88 1019.9
20260902000517 58 132 0.0 2.0 0.00 0.13 0.00 88 1019.8
20260902000026 58 144 0.0 2.0 0.00 0.13 0.00 88 1019.8
20260901235515 58 147 1.0 2.0 0.00 0.13 0.00 88 1019.9
20260901235015 58 147 0.0 2.0 0.00 0.13 0.00 88 1019.8
20260901234515 58 147 0.0 2.0 0.00 0.13 0.00 88 1019.9
20260901234016 58 155 0.0 2.0 0.00 0.13 0.00 88 1019.9
20260901233519 58 155 0.0 2.0 0.00 0.13 0.00 88 1019.9
20260901233014 58 157 0.0 2.0 0.00 0.13 0.00 87 1019.9
20260901232513 58 144 0.0 3.0 0.00 0.13 0.00 87 1020.1
20260901232013 58 118 0.0 3.0 0.00 0.13 0.00 87 1020.1
20260901231518 59 118 0.0 3.0 0.00 0.13 0.00 87 1020.1
20260901231015 59 118 0.0 2.0 0.00 0.13 0.00 87 1020.1
20260901230511 59 118 0.0 1.0 0.00 0.13 0.00 87 1020.2
20260901230011 59 109 0.0 2.0 0.00 0.13 0.00 87 1020.3
20260901225510 59 109 0.0 3.0 0.00 0.13 0.00 87 1020.2